Time,TemperatureF,DewpointF,PressureIn,WindDirection,WindDirectionDegrees,WindSpeedMPH,WindSpeedGustMPH,Humidity,HourlyPrecipIn,Conditions,Clouds,dailyrainin,SoftwareType,DateUTC
2013-01-23 00:01:00,29.4,15.2,30.29,North,5,4.0,6.0,55,0.00,,SKC,0.00,VWS V13.00,2013-01-23 05:01:00,
2013-01-23 00:02:00,29.4,15.2,30.28,NNE,16,3.0,4.0,55,0.00,,SKC,0.00,VWS V13.00,2013-01-23 05:02:00,
2013-01-23 00:03:00,29.4,15.2,30.28,NNE,17,5.0,8.0,55,0.00,,SKC,0.00,VWS V13.00,2013-01-23 05:03:00,
2013-01-23 00:08:00,29.5,15.3,30.28,NNE,21,3.0,6.0,55,0.00,,SKC,0.00,VWS V13.00,2013-01-23 05:08:00,
2013-01-23 00:13:00,29.6,15.4,30.27,NNE,17,4.0,5.0,55,0.00,,SKC,0.00,VWS V13.00,2013-01-23 05:13:00,
2013-01-23 00:18:00,29.6,15.4,30.28,North,11,3.0,5.0,55,0.00,,SKC,0.00,VWS V13.00,2013-01-23 05:18:00,
2013-01-23 00:23:00,29.5,15.3,30.28,North,9,2.0,4.0,55,0.00,,SKC,0.00,VWS V13.00,2013-01-23 05:23:00,
2013-01-23 00:28:00,29.4,15.2,30.28,NNE,30,3.0,5.0,55,0.00,,SKC,0.00,VWS V13.00,2013-01-23 05:28:00,
2013-01-23 00:33:00,29.4,15.2,30.27,NNE,25,2.0,6.0,55,0.00,,SKC,0.00,VWS V13.00,2013-01-23 05:33:00,
2013-01-23 00:38:00,29.4,15.2,30.28,NNE,25,5.0,5.0,55,0.00,,SKC,0.00,VWS V13.00,2013-01-23 05:38:00,
2013-01-23 00:43:00,29.5,15.3,30.28,North,360,0.0,6.0,55,0.00,,SKC,0.00,VWS V13.00,2013-01-23 05:43:00,
2013-01-23 00:48:00,29.5,15.3,30.27,North,11,1.0,7.0,55,0.00,,SKC,0.00,VWS V13.00,2013-01-23 05:48:00,
2013-01-23 00:53:00,29.5,15.3,30.28,NNE,22,2.0,6.0,55,0.00,,SKC,0.00,VWS V13.00,2013-01-23 05:53:00,
2013-01-23 00:58:00,29.4,15.2,30.28,North,5,5.0,7.0,55,0.00,,SKC,0.00,VWS V13.00,2013-01-23 05:58:00,
2013-01-23 01:03:00,29.4,15.2,30.28,North,11,5.0,7.0,55,0.00,,SKC,0.00,VWS V13.00,2013-01-23 06:03:00,
2013-01-23 01:08:00,29.4,15.2,30.28,North,360,3.0,8.0,55,0.00,,SKC,0.00,VWS V13.00,2013-01-23 06:08:00,
2013-01-23 01:13:00,29.3,15.1,30.28,NNW,343,3.0,6.0,55,0.00,,SKC,0.00,VWS V13.00,2013-01-23 06:13:00,
2013-01-23 01:18:00,29.2,15.1,30.28,NNW,340,4.0,7.0,55,0.00,,SKC,0.00,VWS V13.00,2013-01-23 06:18:00,
2013-01-23 01:23:00,29.2,15.1,30.28,NNW,340,9.0,9.0,55,0.00,,SKC,0.00,VWS V13.00,2013-01-23 06:23:00,
2013-01-23 01:28:00,29.0,14.9,30.29,NNW,337,9.0,9.0,55,0.00,,SKC,0.00,VWS V13.00,2013-01-23 06:28:00,
2013-01-23 01:33:00,28.9,14.8,30.28,North,5,6.0,7.0,55,0.00,,SKC,0.00,VWS V13.00,2013-01-23 06:33:00,
2013-01-23 01:38:00,28.8,14.7,30.29,North,5,9.0,9.0,55,0.00,,SKC,0.00,VWS V13.00,2013-01-23 06:38:00,
2013-01-23 01:43:00,28.8,14.7,30.28,North,5,6.0,8.0,55,0.00,,SKC,0.00,VWS V13.00,2013-01-23 06:43:00,
2013-01-23 01:48:00,28.8,15.1,30.28,North,11,6.0,9.0,56,0.00,,SKC,0.00,VWS V13.00,2013-01-23 06:48:00,
2013-01-23 01:53:00,28.7,14.6,30.29,NNW,346,4.0,6.0,55,0.00,,SKC,0.00,VWS V13.00,2013-01-23 06:53:00,
2013-01-23 01:58:00,28.7,14.6,30.28,NNE,15,5.0,8.0,55,0.00,,SKC,0.00,VWS V13.00,2013-01-23 06:58:00,
2013-01-23 02:03:00,28.6,14.5,30.28,NNW,339,6.0,9.0,55,0.00,,SKC,0.00,VWS V13.00,2013-01-23 07:03:00,
2013-01-23 02:08:00,28.6,14.5,30.29,NNE,26,3.0,8.0,55,0.00,,SKC,0.00,VWS V13.00,2013-01-23 07:08:00,
2013-01-23 02:13:00,28.6,14.5,30.29,NNW,336,6.0,10.0,55,0.00,,SKC,0.00,VWS V13.00,2013-01-23 07:13:00,
2013-01-23 02:18:00,28.5,14.4,30.29,North,9,6.0,11.0,55,0.00,,SKC,0.00,VWS V13.00,2013-01-23 07:18:00,
2013-01-23 02:23:00,28.5,14.4,30.29,North,5,3.0,9.0,55,0.00,,SKC,0.00,VWS V13.00,2013-01-23 07:23:00,
2013-01-23 02:28:00,28.5,14.4,30.30,North,5,4.0,11.0,55,0.00,,SKC,0.00,VWS V13.00,2013-01-23 07:28:00,
2013-01-23 02:33:00,28.5,14.4,30.30,NE,39,8.0,9.0,55,0.00,,SKC,0.00,VWS V13.00,2013-01-23 07:33:00,
2013-01-23 02:38:00,28.5,14.4,30.30,NNW,340,5.0,9.0,55,0.00,,SKC,0.00,VWS V13.00,2013-01-23 07:38:00,
2013-01-23 02:43:00,28.5,14.4,30.30,NNE,26,6.0,9.0,55,0.00,,SKC,0.00,VWS V13.00,2013-01-23 07:43:00,
2013-01-23 02:48:00,28.4,14.3,30.30,North,11,7.0,8.0,55,0.00,,SKC,0.00,VWS V13.00,2013-01-23 07:48:00,
2013-01-23 02:53:00,28.4,14.3,30.30,NNE,20,3.0,8.0,55,0.00,,SKC,0.00,VWS V13.00,2013-01-23 07:53:00,
2013-01-23 02:58:00,28.4,14.7,30.30,NNW,345,3.0,9.0,56,0.00,,SKC,0.00,VWS V13.00,2013-01-23 07:58:00,
2013-01-23 03:03:00,28.4,14.7,30.30,North,5,7.0,8.0,56,0.00,,SKC,0.00,VWS V13.00,2013-01-23 08:03:00,
2013-01-23 03:08:00,28.3,14.6,30.30,North,9,4.0,10.0,56,0.00,,SKC,0.00,VWS V13.00,2013-01-23 08:08:00,
2013-01-23 03:13:00,28.2,14.5,30.30,North,350,8.0,10.0,56,0.00,,SKC,0.00,VWS V13.00,2013-01-23 08:13:00,
2013-01-23 03:18:00,28.2,14.5,30.30,North,5,4.0,7.0,56,0.00,,SKC,0.00,VWS V13.00,2013-01-23 08:18:00,
2013-01-23 03:23:00,28.2,14.5,30.30,North,360,3.0,10.0,56,0.00,,SKC,0.00,VWS V13.00,2013-01-23 08:23:00,
2013-01-23 03:28:00,28.2,14.5,30.30,North,360,5.0,5.0,56,0.00,,SKC,0.00,VWS V13.00,2013-01-23 08:28:00,
2013-01-23 03:33:00,28.1,14.4,30.31,North,360,4.0,7.0,56,0.00,,SKC,0.00,VWS V13.00,2013-01-23 08:33:00,
2013-01-23 03:38:00,28.1,14.4,30.31,NNE,29,5.0,8.0,56,0.00,,SKC,0.00,VWS V13.00,2013-01-23 08:38:00,
2013-01-23 03:43:00,28.1,14.4,30.31,North,355,2.0,9.0,56,0.00,,SKC,0.00,VWS V13.00,2013-01-23 08:43:00,
2013-01-23 03:48:00,28.0,14.3,30.31,NNE,18,5.0,6.0,56,0.00,,SKC,0.00,VWS V13.00,2013-01-23 08:48:00,
2013-01-23 03:53:00,27.9,14.6,30.31,NNE,18,5.0,7.0,57,0.00,,SKC,0.00,VWS V13.00,2013-01-23 08:53:00,
2013-01-23 03:58:00,27.9,14.6,30.31,North,5,3.0,8.0,57,0.00,,SKC,0.00,VWS V13.00,2013-01-23 08:58:00,
2013-01-23 04:03:00,27.9,14.6,30.31,North,9,5.0,7.0,57,0.00,,SKC,0.00,VWS V13.00,2013-01-23 09:03:00,
2013-01-23 04:08:00,27.8,14.6,30.31,NNW,348,5.0,8.0,57,0.00,,SKC,0.00,VWS V13.00,2013-01-23 09:08:00,
2013-01-23 04:13:00,27.7,14.5,30.30,North,355,4.0,9.0,57,0.00,,SKC,0.00,VWS V13.00,2013-01-23 09:13:00,
2013-01-23 04:18:00,27.6,14.4,30.30,North,360,6.0,7.0,57,0.00,,SKC,0.00,VWS V13.00,2013-01-23 09:18:00,
2013-01-23 04:23:00,27.5,14.7,30.30,NNE,14,5.0,7.0,58,0.00,,SKC,0.00,VWS V13.00,2013-01-23 09:23:00,
2013-01-23 04:28:00,27.3,14.1,30.31,NNW,342,5.0,5.0,57,0.00,,SKC,0.00,VWS V13.00,2013-01-23 09:28:00,
2013-01-23 04:33:00,27.3,14.1,30.31,NNW,343,6.0,8.0,57,0.00,,SKC,0.00,VWS V13.00,2013-01-23 09:33:00,
2013-01-23 04:38:00,27.2,14.4,30.31,North,355,2.0,5.0,58,0.00,,SKC,0.00,VWS V13.00,2013-01-23 09:38:00,
2013-01-23 04:43:00,27.1,14.3,30.31,NNE,26,4.0,10.0,58,0.00,,SKC,0.00,VWS V13.00,2013-01-23 09:43:00,
2013-01-23 04:48:00,27.1,14.3,30.31,North,11,4.0,9.0,58,0.00,,SKC,0.00,VWS V13.00,2013-01-23 09:48:00,
2013-01-23 04:53:00,27.1,14.3,30.32,North,355,2.0,10.0,58,0.00,,SKC,0.00,VWS V13.00,2013-01-23 09:53:00,
2013-01-23 04:58:00,27.1,14.3,30.32,NNW,336,5.0,11.0,58,0.00,,SKC,0.00,VWS V13.00,2013-01-23 09:58:00,
2013-01-23 05:03:00,27.0,14.2,30.32,NNW,344,4.0,7.0,58,0.00,,SKC,0.00,VWS V13.00,2013-01-23 10:03:00,
2013-01-23 05:08:00,26.9,14.1,30.32,North,5,9.0,11.0,58,0.00,,SKC,0.00,VWS V13.00,2013-01-23 10:08:00,
2013-01-23 05:13:00,26.9,14.1,30.32,NNW,346,4.0,10.0,58,0.00,,SKC,0.00,VWS V13.00,2013-01-23 10:13:00,
2013-01-23 05:18:00,26.9,14.1,30.32,North,355,6.0,10.0,58,0.00,,SKC,0.00,VWS V13.00,2013-01-23 10:18:00,
2013-01-23 05:23:00,26.8,14.0,30.32,North,360,3.0,9.0,58,0.00,,SKC,0.00,VWS V13.00,2013-01-23 10:23:00,
2013-01-23 05:28:00,26.7,13.9,30.32,North,355,4.0,6.0,58,0.00,,SKC,0.00,VWS V13.00,2013-01-23 10:28:00,
2013-01-23 05:33:00,26.6,13.8,30.32,NNW,348,6.0,10.0,58,0.00,,SKC,0.00,VWS V13.00,2013-01-23 10:33:00,
2013-01-23 05:38:00,26.5,13.7,30.33,North,5,7.0,7.0,58,0.00,,SKC,0.00,VWS V13.00,2013-01-23 10:38:00,
2013-01-23 05:43:00,26.5,13.7,30.33,North,349,6.0,9.0,58,0.00,,SKC,0.00,VWS V13.00,2013-01-23 10:43:00,
2013-01-23 05:48:00,26.3,13.6,30.33,NNW,338,7.0,8.0,58,0.00,,SKC,0.00,VWS V13.00,2013-01-23 10:48:00,
2013-01-23 05:53:00,26.3,13.6,30.33,NNW,339,6.0,10.0,58,0.00,,SKC,0.00,VWS V13.00,2013-01-23 10:53:00,
2013-01-23 05:58:00,26.2,13.1,30.33,North,351,6.0,10.0,57,0.00,,SKC,0.00,VWS V13.00,2013-01-23 10:58:00,
2013-01-23 06:03:00,26.2,13.1,30.34,North,10,5.0,9.0,57,0.00,,SKC,0.00,VWS V13.00,2013-01-23 11:03:00,
2013-01-23 06:08:00,26.1,13.0,30.34,North,355,8.0,8.0,57,0.00,,SKC,0.00,VWS V13.00,2013-01-23 11:08:00,
2013-01-23 06:13:00,26.0,12.9,30.35,North,360,4.0,10.0,57,0.00,,SKC,0.00,VWS V13.00,2013-01-23 11:13:00,
2013-01-23 06:18:00,25.9,12.8,30.35,NE,42,3.0,9.0,57,0.00,,SKC,0.00,VWS V13.00,2013-01-23 11:18:00,
2013-01-23 06:23:00,25.8,12.7,30.35,NNE,17,3.0,6.0,57,0.00,,SKC,0.00,VWS V13.00,2013-01-23 11:23:00,
2013-01-23 06:28:00,25.8,12.7,30.35,NNW,327,5.0,11.0,57,0.00,,SKC,0.00,VWS V13.00,2013-01-23 11:28:00,
2013-01-23 06:34:00,25.8,12.7,30.35,NNW,336,2.0,7.0,57,0.00,,SKC,0.00,VWS V13.00,2013-01-23 11:34:00,
2013-01-23 06:39:00,25.7,12.2,30.35,NNE,20,0.0,7.0,56,0.00,,SKC,0.00,VWS V13.00,2013-01-23 11:39:00,
2013-01-23 06:44:00,25.7,12.2,30.35,NE,38,2.0,8.0,56,0.00,,SKC,0.00,VWS V13.00,2013-01-23 11:44:00,
2013-01-23 06:49:00,25.7,12.2,30.35,North,355,5.0,6.0,56,0.00,,SKC,0.00,VWS V13.00,2013-01-23 11:49:00,
2013-01-23 06:54:00,25.6,12.1,30.35,North,11,1.0,8.0,56,0.00,,SKC,0.00,VWS V13.00,2013-01-23 11:54:00,
2013-01-23 06:59:00,25.6,12.1,30.35,North,355,4.0,8.0,56,0.00,,SKC,0.00,VWS V13.00,2013-01-23 11:59:00,
2013-01-23 07:04:00,25.5,12.0,30.36,North,355,2.0,6.0,56,0.00,,SKC,0.00,VWS V13.00,2013-01-23 12:04:00,
2013-01-23 07:09:00,25.4,11.9,30.36,North,355,5.0,9.0,56,0.00,,SKC,0.00,VWS V13.00,2013-01-23 12:09:00,
2013-01-23 07:14:00,25.4,11.9,30.36,North,5,3.0,6.0,56,0.00,,SKC,0.00,VWS V13.00,2013-01-23 12:14:00,
2013-01-23 07:19:00,25.3,11.8,30.36,NNW,341,4.0,5.0,56,0.00,,SKC,0.00,VWS V13.00,2013-01-23 12:19:00,
2013-01-23 07:24:00,25.2,11.7,30.36,North,5,4.0,6.0,56,0.00,,SKC,0.00,VWS V13.00,2013-01-23 12:24:00,
2013-01-23 07:29:00,25.1,11.6,30.36,North,5,0.0,6.0,56,0.00,,SKC,0.00,VWS V13.00,2013-01-23 12:29:00,
2013-01-23 07:34:00,25.1,11.6,30.36,NNE,15,7.0,8.0,56,0.00,,SKC,0.00,VWS V13.00,2013-01-23 12:34:00,
2013-01-23 07:39:00,25.1,11.6,30.36,North,360,5.0,7.0,56,0.00,,SKC,0.00,VWS V13.00,2013-01-23 12:39:00,
2013-01-23 07:44:00,25.1,11.6,30.37,NNW,344,4.0,5.0,56,0.00,,SKC,0.00,VWS V13.00,2013-01-23 12:44:00,
2013-01-23 07:49:00,25.2,11.7,30.37,North,5,4.0,6.0,56,0.00,,SKC,0.00,VWS V13.00,2013-01-23 12:49:00,
2013-01-23 07:54:00,25.3,11.8,30.37,NNE,26,2.0,8.0,56,0.00,,SKC,0.00,VWS V13.00,2013-01-23 12:54:00,
2013-01-23 07:59:00,25.5,12.0,30.37,NNE,23,3.0,9.0,56,0.00,,SKC,0.00,VWS V13.00,2013-01-23 12:59:00,
2013-01-23 08:04:00,25.7,12.2,30.37,NNE,30,3.0,7.0,56,0.00,,SKC,0.00,VWS V13.00,2013-01-23 13:04:00,
2013-01-23 08:09:00,25.8,12.3,30.37,NNW,340,3.0,10.0,56,0.00,,SKC,0.00,VWS V13.00,2013-01-23 13:09:00,
2013-01-23 08:14:00,26.0,12.5,30.37,North,5,4.0,6.0,56,0.00,,SKC,0.00,VWS V13.00,2013-01-23 13:14:00,
2013-01-23 08:19:00,26.2,12.7,30.37,NNE,19,6.0,8.0,56,0.00,,SKC,0.00,VWS V13.00,2013-01-23 13:19:00,
2013-01-23 08:24:00,26.4,12.4,30.38,ENE,63,1.0,11.0,55,0.00,,SKC,0.00,VWS V13.00,2013-01-23 13:24:00,
2013-01-23 08:29:00,26.8,12.8,30.38,NNE,18,2.0,8.0,55,0.00,,SKC,0.00,VWS V13.00,2013-01-23 13:29:00,
2013-01-23 08:34:00,27.2,13.2,30.38,NNE,25,2.0,8.0,55,0.00,,SKC,0.00,VWS V13.00,2013-01-23 13:34:00,
2013-01-23 08:39:00,27.8,13.8,30.38,North,9,4.0,8.0,55,0.00,,SKC,0.00,VWS V13.00,2013-01-23 13:39:00,
2013-01-23 08:44:00,28.0,13.5,30.38,NNE,13,5.0,9.0,54,0.00,,SKC,0.00,VWS V13.00,2013-01-23 13:44:00,
2013-01-23 08:49:00,28.3,13.8,30.38,NNW,329,4.0,10.0,54,0.00,,SKC,0.00,VWS V13.00,2013-01-23 13:49:00,
2013-01-23 08:54:00,28.7,14.2,30.38,NNW,339,5.0,6.0,54,0.00,,SKC,0.00,VWS V13.00,2013-01-23 13:54:00,
2013-01-23 08:59:00,29.1,14.1,30.38,NNE,21,8.0,12.0,53,0.00,,SKC,0.00,VWS V13.00,2013-01-23 13:59:00,
2013-01-23 09:04:00,29.3,14.3,30.38,NNW,348,6.0,9.0,53,0.00,,SKC,0.00,VWS V13.00,2013-01-23 14:04:00,
2013-01-23 09:09:00,29.5,14.1,30.39,NNE,19,4.0,10.0,52,0.00,,SKC,0.00,VWS V13.00,2013-01-23 14:09:00,
2013-01-23 09:14:00,30.0,15.0,30.39,North,5,10.0,10.0,53,0.00,,SKC,0.00,VWS V13.00,2013-01-23 14:14:00,
2013-01-23 09:19:00,30.4,14.9,30.39,NNW,328,9.0,12.0,52,0.00,,SKC,0.00,VWS V13.00,2013-01-23 14:19:00,
2013-01-23 09:24:00,30.4,14.4,30.39,North,350,8.0,10.0,51,0.00,,SKC,0.00,VWS V13.00,2013-01-23 14:24:00,
2013-01-23 09:29:00,30.8,14.8,30.40,North,9,5.0,12.0,51,0.00,,SKC,0.00,VWS V13.00,2013-01-23 14:29:00,
2013-01-23 09:34:00,31.2,14.7,30.39,NW,323,10.0,11.0,50,0.00,,SKC,0.00,VWS V13.00,2013-01-23 14:34:00,
2013-01-23 09:39:00,31.5,15.0,30.39,NNW,339,2.0,13.0,50,0.00,,SKC,0.00,VWS V13.00,2013-01-23 14:39:00,
2013-01-23 09:44:00,31.8,15.3,30.40,North,350,3.0,12.0,50,0.00,,SKC,0.00,VWS V13.00,2013-01-23 14:44:00,
2013-01-23 09:49:00,32.0,15.0,30.40,North,360,7.0,10.0,49,0.00,,SKC,0.00,VWS V13.00,2013-01-23 14:49:00,
2013-01-23 09:54:00,32.3,15.3,30.40,NNE,14,3.0,13.0,49,0.00,,SKC,0.00,VWS V13.00,2013-01-23 14:54:00,
2013-01-23 09:59:00,32.7,15.7,30.40,North,9,9.0,16.0,49,0.00,,SKC,0.00,VWS V13.00,2013-01-23 14:59:00,
2013-01-23 10:04:00,32.7,15.2,30.40,NW,304,4.0,13.0,48,0.00,,SKC,0.00,VWS V13.00,2013-01-23 15:04:00,
2013-01-23 10:09:00,32.8,15.3,30.40,NNW,329,9.0,13.0,48,0.00,,SKC,0.00,VWS V13.00,2013-01-23 15:09:00,
2013-01-23 10:14:00,33.0,15.5,30.40,North,350,6.0,11.0,48,0.00,,SKC,0.00,VWS V13.00,2013-01-23 15:14:00,
2013-01-23 10:19:00,33.3,15.7,30.39,NW,324,7.0,15.0,48,0.00,,SKC,0.00,VWS V13.00,2013-01-23 15:19:00,
2013-01-23 10:24:00,33.7,16.1,30.40,North,360,9.0,11.0,48,0.00,,SKC,0.00,VWS V13.00,2013-01-23 15:24:00,
2013-01-23 10:29:00,34.4,16.8,30.40,NW,312,14.0,14.0,48,0.00,,SKC,0.00,VWS V13.00,2013-01-23 15:29:00,
2013-01-23 10:34:00,34.9,17.2,30.40,WNW,298,5.0,14.0,48,0.00,,SKC,0.00,VWS V13.00,2013-01-23 15:34:00,
2013-01-23 10:39:00,35.3,17.1,30.39,NNE,12,4.0,10.0,47,0.00,,SKC,0.00,VWS V13.00,2013-01-23 15:39:00,
2013-01-23 10:44:00,35.4,17.2,30.39,North,355,5.0,10.0,47,0.00,,SKC,0.00,VWS V13.00,2013-01-23 15:44:00,
2013-01-23 10:49:00,35.3,17.1,30.39,NNE,26,3.0,13.0,47,0.00,,SKC,0.00,VWS V13.00,2013-01-23 15:49:00,
2013-01-23 10:54:00,35.7,17.0,30.39,NNW,332,3.0,10.0,46,0.00,,SKC,0.00,VWS V13.00,2013-01-23 15:54:00,
2013-01-23 10:59:00,35.9,17.1,30.39,NNW,338,1.0,7.0,46,0.00,,SKC,0.00,VWS V13.00,2013-01-23 15:59:00,
2013-01-23 11:04:00,36.4,17.6,30.38,NNE,17,5.0,12.0,46,0.00,,SKC,0.00,VWS V13.00,2013-01-23 16:04:00,
2013-01-23 11:09:00,36.6,17.8,30.38,North,5,1.0,9.0,46,0.00,,SKC,0.00,VWS V13.00,2013-01-23 16:09:00,
2013-01-23 11:14:00,36.5,17.7,30.38,NNW,335,9.0,9.0,46,0.00,,SKC,0.00,VWS V13.00,2013-01-23 16:14:00,
2013-01-23 11:19:00,36.9,18.1,30.38,NNW,338,6.0,10.0,46,0.00,,SKC,0.00,VWS V13.00,2013-01-23 16:19:00,
2013-01-23 11:24:00,37.5,18.6,30.38,NNW,327,2.0,11.0,46,0.00,,SKC,0.00,VWS V13.00,2013-01-23 16:24:00,
2013-01-23 11:29:00,37.7,18.3,30.37,North,360,4.0,8.0,45,0.00,,SKC,0.00,VWS V13.00,2013-01-23 16:29:00,
2013-01-23 11:34:00,37.9,18.5,30.37,NNW,332,10.0,10.0,45,0.00,,SKC,0.00,VWS V13.00,2013-01-23 16:34:00,
2013-01-23 11:39:00,37.9,18.0,30.37,NW,326,6.0,9.0,44,0.00,,SKC,0.00,VWS V13.00,2013-01-23 16:39:00,
2013-01-23 11:44:00,38.2,18.2,30.36,North,360,2.0,9.0,44,0.00,,SKC,0.00,VWS V13.00,2013-01-23 16:44:00,
2013-01-23 11:49:00,38.3,18.3,30.36,NNW,342,9.0,11.0,44,0.00,,SKC,0.00,VWS V13.00,2013-01-23 16:49:00,
2013-01-23 11:54:00,38.3,18.3,30.36,NW,325,10.0,12.0,44,0.00,,SKC,0.00,VWS V13.00,2013-01-23 16:54:00,
2013-01-23 11:59:00,38.7,18.7,30.36,NW,306,5.0,7.0,44,0.00,,SKC,0.00,VWS V13.00,2013-01-23 16:59:00,
2013-01-23 12:04:00,39.1,19.0,30.35,NW,304,6.0,9.0,44,0.00,,SKC,0.00,VWS V13.00,2013-01-23 17:04:00,
2013-01-23 12:09:00,39.4,19.3,30.35,NW,304,2.0,9.0,44,0.00,,SKC,0.00,VWS V13.00,2013-01-23 17:09:00,
2013-01-23 12:14:00,39.7,19.6,30.35,NNE,16,3.0,9.0,44,0.00,,SKC,0.00,VWS V13.00,2013-01-23 17:14:00,
2013-01-23 12:19:00,39.6,19.0,30.35,North,355,0.0,7.0,43,0.00,,SKC,0.00,VWS V13.00,2013-01-23 17:19:00,
2013-01-23 12:24:00,39.6,19.5,30.34,WNW,284,3.0,10.0,44,0.00,,SKC,0.00,VWS V13.00,2013-01-23 17:24:00,
2013-01-23 12:29:00,40.0,19.3,30.34,NNW,337,3.0,11.0,43,0.00,,SKC,0.00,VWS V13.00,2013-01-23 17:29:00,
2013-01-23 12:34:00,40.2,19.5,30.33,NNW,333,5.0,7.0,43,0.00,,SKC,0.00,VWS V13.00,2013-01-23 17:34:00,
2013-01-23 12:39:00,40.6,19.9,30.33,West,259,3.0,7.0,43,0.00,,SKC,0.00,VWS V13.00,2013-01-23 17:39:00,
2013-01-23 12:44:00,41.0,20.8,30.33,NW,312,10.0,10.0,44,0.00,,SKC,0.00,VWS V13.00,2013-01-23 17:44:00,
2013-01-23 12:49:00,41.3,20.5,30.33,WNW,284,5.0,8.0,43,0.00,,SKC,0.00,VWS V13.00,2013-01-23 17:49:00,
2013-01-23 12:54:00,41.4,20.6,30.33,WNW,296,8.0,11.0,43,0.00,,SKC,0.00,VWS V13.00,2013-01-23 17:54:00,
2013-01-23 12:59:00,41.4,20.6,30.32,WNW,302,1.0,13.0,43,0.00,,SKC,0.00,VWS V13.00,2013-01-23 17:59:00,
2013-01-23 13:04:00,41.3,20.0,30.32,NW,325,2.0,12.0,42,0.00,,SKC,0.00,VWS V13.00,2013-01-23 18:04:00,
2013-01-23 13:09:00,41.3,20.5,30.32,NW,309,7.0,11.0,43,0.00,,SKC,0.00,VWS V13.00,2013-01-23 18:09:00,
2013-01-23 13:14:00,41.3,20.0,30.32,WNW,292,5.0,11.0,42,0.00,,SKC,0.00,VWS V13.00,2013-01-23 18:14:00,
2013-01-23 13:19:00,41.1,19.8,30.32,West,281,8.0,11.0,42,0.00,,SKC,0.00,VWS V13.00,2013-01-23 18:19:00,
2013-01-23 13:24:00,41.4,20.6,30.31,WNW,282,8.0,9.0,43,0.00,,SKC,0.00,VWS V13.00,2013-01-23 18:24:00,
2013-01-23 13:29:00,41.7,20.9,30.31,NW,318,6.0,12.0,43,0.00,,SKC,0.00,VWS V13.00,2013-01-23 18:29:00,
2013-01-23 13:34:00,41.9,21.0,30.31,WNW,292,6.0,10.0,43,0.00,,SKC,0.00,VWS V13.00,2013-01-23 18:34:00,
2013-01-23 13:39:00,41.5,20.1,30.31,NNW,340,8.0,9.0,42,0.00,,SKC,0.00,VWS V13.00,2013-01-23 18:39:00,
2013-01-23 13:44:00,41.2,19.9,30.30,NW,321,9.0,9.0,42,0.00,,SKC,0.00,VWS V13.00,2013-01-23 18:44:00,
2013-01-23 13:49:00,41.1,19.8,30.30,WSW,252,4.0,6.0,42,0.00,,SKC,0.00,VWS V13.00,2013-01-23 18:49:00,
2013-01-23 13:54:00,41.4,20.0,30.30,WNW,291,2.0,7.0,42,0.00,,SKC,0.00,VWS V13.00,2013-01-23 18:54:00,
2013-01-23 13:59:00,41.6,20.2,30.29,West,260,2.0,6.0,42,0.00,,SKC,0.00,VWS V13.00,2013-01-23 18:59:00,
2013-01-23 14:04:00,41.8,20.4,30.29,West,278,4.0,9.0,42,0.00,,SKC,0.00,VWS V13.00,2013-01-23 19:04:00,
2013-01-23 14:09:00,42.0,20.6,30.29,WNW,302,6.0,8.0,42,0.00,,SKC,0.00,VWS V13.00,2013-01-23 19:09:00,
2013-01-23 14:14:00,41.9,20.5,30.29,NNW,340,6.0,6.0,42,0.00,,SKC,0.00,VWS V13.00,2013-01-23 19:14:00,
2013-01-23 14:19:00,41.9,20.5,30.28,NW,309,3.0,5.0,42,0.00,,SKC,0.00,VWS V13.00,2013-01-23 19:19:00,
2013-01-23 14:24:00,42.3,20.9,30.28,WNW,295,4.0,8.0,42,0.00,,SKC,0.00,VWS V13.00,2013-01-23 19:24:00,
2013-01-23 14:29:00,42.3,20.9,30.28,WNW,286,2.0,7.0,42,0.00,,SKC,0.00,VWS V13.00,2013-01-23 19:29:00,
2013-01-23 14:34:00,42.3,20.9,30.28,NW,305,0.0,6.0,42,0.00,,SKC,0.00,VWS V13.00,2013-01-23 19:34:00,
2013-01-23 14:39:00,42.5,21.0,30.28,NW,307,0.0,6.0,42,0.00,,SKC,0.00,VWS V13.00,2013-01-23 19:39:00,
2013-01-23 14:44:00,42.5,21.0,30.28,WSW,258,1.0,7.0,42,0.00,,SKC,0.00,VWS V13.00,2013-01-23 19:44:00,
2013-01-23 14:49:00,42.7,21.2,30.28,West,268,3.0,6.0,42,0.00,,SKC,0.00,VWS V13.00,2013-01-23 19:49:00,
2013-01-23 14:54:00,42.6,21.1,30.28,WSW,257,5.0,10.0,42,0.00,,SKC,0.00,VWS V13.00,2013-01-23 19:54:00,
2013-01-23 14:59:00,42.2,20.8,30.27,WSW,238,6.0,6.0,42,0.00,,SKC,0.00,VWS V13.00,2013-01-23 19:59:00,
2013-01-23 15:04:00,42.2,20.8,30.27,West,265,4.0,6.0,42,0.00,,SKC,0.00,VWS V13.00,2013-01-23 20:04:00,
2013-01-23 15:09:00,42.2,20.8,30.27,NW,309,3.0,9.0,42,0.00,,SKC,0.00,VWS V13.00,2013-01-23 20:09:00,
2013-01-23 15:14:00,42.1,20.1,30.27,West,273,4.0,5.0,41,0.00,,SKC,0.00,VWS V13.00,2013-01-23 20:14:00,
2013-01-23 15:19:00,42.2,20.8,30.28,West,281,1.0,4.0,42,0.00,,SKC,0.00,VWS V13.00,2013-01-23 20:19:00,
2013-01-23 15:24:00,42.4,21.0,30.27,West,276,1.0,4.0,42,0.00,,SKC,0.00,VWS V13.00,2013-01-23 20:24:00,
2013-01-23 15:29:00,42.7,21.2,30.27,West,273,5.0,8.0,42,0.00,,SKC,0.00,VWS V13.00,2013-01-23 20:29:00,
2013-01-23 15:34:00,42.7,21.2,30.27,West,263,7.0,10.0,42,0.00,,SKC,0.00,VWS V13.00,2013-01-23 20:34:00,
2013-01-23 15:39:00,42.5,21.0,30.27,West,271,4.0,10.0,42,0.00,,SKC,0.00,VWS V13.00,2013-01-23 20:39:00,
2013-01-23 15:44:00,42.3,20.9,30.27,West,275,3.0,7.0,42,0.00,,SKC,0.00,VWS V13.00,2013-01-23 20:44:00,
2013-01-23 15:49:00,42.0,20.6,30.27,West,281,4.0,8.0,42,0.00,,SKC,0.00,VWS V13.00,2013-01-23 20:49:00,
2013-01-23 15:54:00,41.9,20.5,30.27,WNW,301,0.0,4.0,42,0.00,,SKC,0.00,VWS V13.00,2013-01-23 20:54:00,
2013-01-23 15:59:00,41.9,20.5,30.27,WNW,290,4.0,5.0,42,0.00,,SKC,0.00,VWS V13.00,2013-01-23 20:59:00,
2013-01-23 16:04:00,42.0,20.6,30.27,WSW,254,4.0,8.0,42,0.00,,SKC,0.00,VWS V13.00,2013-01-23 21:04:00,
2013-01-23 16:09:00,41.8,20.4,30.27,WNW,292,4.0,6.0,42,0.00,,SKC,0.00,VWS V13.00,2013-01-23 21:09:00,
2013-01-23 16:14:00,41.7,20.3,30.27,West,269,3.0,7.0,42,0.00,,SKC,0.00,VWS V13.00,2013-01-23 21:14:00,
2013-01-23 16:19:00,41.5,20.1,30.27,WNW,284,1.0,4.0,42,0.00,,SKC,0.00,VWS V13.00,2013-01-23 21:19:00,
2013-01-23 16:24:00,41.3,20.0,30.27,West,267,1.0,3.0,42,0.00,,SKC,0.00,VWS V13.00,2013-01-23 21:24:00,
2013-01-23 16:29:00,41.1,19.8,30.27,West,259,4.0,4.0,42,0.00,,SKC,0.00,VWS V13.00,2013-01-23 21:29:00,
2013-01-23 16:34:00,40.9,19.6,30.27,West,259,0.0,5.0,42,0.00,,SKC,0.00,VWS V13.00,2013-01-23 21:34:00,
2013-01-23 16:39:00,40.6,19.3,30.27,West,281,4.0,5.0,42,0.00,,SKC,0.00,VWS V13.00,2013-01-23 21:39:00,
2013-01-23 16:44:00,40.3,19.6,30.27,WNW,295,0.0,3.0,43,0.00,,SKC,0.00,VWS V13.00,2013-01-23 21:44:00,
2013-01-23 16:49:00,40.0,19.3,30.26,WNW,296,1.0,5.0,43,0.00,,SKC,0.00,VWS V13.00,2013-01-23 21:49:00,
2013-01-23 16:54:00,39.7,19.0,30.26,West,270,4.0,4.0,43,0.00,,SKC,0.00,VWS V13.00,2013-01-23 21:54:00,
2013-01-23 16:59:00,39.5,18.9,30.26,West,273,0.0,1.0,43,0.00,,SKC,0.00,VWS V13.00,2013-01-23 21:59:00,
2013-01-23 17:04:00,39.3,18.7,30.26,WSW,254,2.0,4.0,43,0.00,,SKC,0.00,VWS V13.00,2013-01-23 22:04:00,
2013-01-23 17:09:00,39.0,19.0,30.26,NW,323,0.0,3.0,44,0.00,,SKC,0.00,VWS V13.00,2013-01-23 22:09:00,
2013-01-23 17:14:00,38.8,18.8,30.26,West,269,2.0,4.0,44,0.00,,SKC,0.00,VWS V13.00,2013-01-23 22:14:00,
2013-01-23 17:18:00,38.5,18.5,30.26,WNW,282,1.0,4.0,44,0.00,,SKC,0.00,VWS V13.00,2013-01-23 22:18:00,
2013-01-23 17:23:00,38.2,18.2,30.26,West,274,0.0,2.0,44,0.00,,SKC,0.00,VWS V13.00,2013-01-23 22:23:00,
2013-01-23 17:28:00,37.8,17.9,30.26,West,274,0.0,1.0,44,0.00,,SKC,0.00,VWS V13.00,2013-01-23 22:28:00,
2013-01-23 17:33:00,37.5,17.6,30.26,WNW,284,1.0,4.0,44,0.00,,SKC,0.00,VWS V13.00,2013-01-23 22:33:00,
2013-01-23 17:39:00,37.0,17.1,30.26,West,275,2.0,2.0,44,0.00,,SKC,0.00,VWS V13.00,2013-01-23 22:39:00,
2013-01-23 17:44:00,36.6,17.3,30.26,WSW,256,2.0,2.0,45,0.00,,SKC,0.00,VWS V13.00,2013-01-23 22:44:00,
2013-01-23 17:49:00,36.3,17.0,30.26,WSW,248,3.0,3.0,45,0.00,,SKC,0.00,VWS V13.00,2013-01-23 22:49:00,
2013-01-23 17:54:00,35.9,16.6,30.26,West,262,0.0,3.0,45,0.00,,SKC,0.00,VWS V13.00,2013-01-23 22:54:00,
2013-01-23 17:59:00,35.6,16.9,30.27,West,262,0.0,1.0,46,0.00,,SKC,0.00,VWS V13.00,2013-01-23 22:59:00,
2013-01-23 18:03:00,35.2,16.5,30.27,WSW,256,2.0,3.0,46,0.00,,SKC,0.00,VWS V13.00,2013-01-23 23:03:00,
2013-01-23 18:08:00,34.9,16.2,30.27,WSW,256,1.0,3.0,46,0.00,,SKC,0.00,VWS V13.00,2013-01-23 23:08:00,
2013-01-23 18:13:00,34.4,15.8,30.27,WSW,248,0.0,2.0,46,0.00,,SKC,0.00,VWS V13.00,2013-01-23 23:13:00,
2013-01-23 18:18:00,34.4,16.3,30.27,WSW,258,1.0,3.0,47,0.00,,SKC,0.00,VWS V13.00,2013-01-23 23:18:00,
2013-01-23 18:23:00,34.1,16.0,30.27,WSW,258,0.0,2.0,47,0.00,,SKC,0.00,VWS V13.00,2013-01-23 23:23:00,
2013-01-23 18:28:00,33.7,15.6,30.26,WSW,254,1.0,3.0,47,0.00,,SKC,0.00,VWS V13.00,2013-01-23 23:28:00,
2013-01-23 18:33:00,33.4,15.4,30.27,West,259,3.0,3.0,47,0.00,,SKC,0.00,VWS V13.00,2013-01-23 23:33:00,
2013-01-23 18:38:00,33.2,15.6,30.27,WSW,249,0.0,2.0,48,0.00,,SKC,0.00,VWS V13.00,2013-01-23 23:38:00,
2013-01-23 18:43:00,33.0,15.5,30.27,WSW,243,1.0,4.0,48,0.00,,SKC,0.00,VWS V13.00,2013-01-23 23:43:00,
2013-01-23 18:48:00,33.0,15.9,30.26,WSW,244,2.0,3.0,49,0.00,,SKC,0.00,VWS V13.00,2013-01-23 23:48:00,
2013-01-23 18:53:00,32.9,15.9,30.26,WSW,257,0.0,0.0,49,0.00,,SKC,0.00,VWS V13.00,2013-01-23 23:53:00,
2013-01-23 18:58:00,32.8,15.8,30.27,West,266,2.0,3.0,49,0.00,,SKC,0.00,VWS V13.00,2013-01-23 23:58:00,
2013-01-23 19:03:00,32.5,15.9,30.26,West,269,0.0,2.0,50,0.00,,SKC,0.00,VWS V13.00,2013-01-24 00:03:00,
2013-01-23 19:08:00,32.4,15.9,30.26,WSW,244,2.0,3.0,50,0.00,,SKC,0.00,VWS V13.00,2013-01-24 00:08:00,
2013-01-23 19:13:00,32.2,15.7,30.26,SW,223,0.0,2.0,50,0.00,,SKC,0.00,VWS V13.00,2013-01-24 00:13:00,
2013-01-23 19:18:00,32.3,16.2,30.27,West,261,1.0,2.0,51,0.00,,SKC,0.00,VWS V13.00,2013-01-24 00:18:00,
2013-01-23 19:23:00,32.2,16.1,30.26,WSW,257,0.0,2.0,51,0.00,,SKC,0.00,VWS V13.00,2013-01-24 00:23:00,
2013-01-23 19:28:00,32.1,16.0,30.26,West,261,1.0,5.0,51,0.00,,SKC,0.00,VWS V13.00,2013-01-24 00:28:00,
2013-01-23 19:33:00,32.1,16.5,30.25,SW,223,2.0,4.0,52,0.00,,SKC,0.00,VWS V13.00,2013-01-24 00:33:00,
2013-01-23 19:38:00,32.3,16.7,30.25,West,260,0.0,2.0,52,0.00,,SKC,0.00,VWS V13.00,2013-01-24 00:38:00,
2013-01-23 19:43:00,32.5,16.9,30.25,WSW,239,1.0,3.0,52,0.00,,SKC,0.00,VWS V13.00,2013-01-24 00:43:00,
2013-01-23 19:48:00,32.7,17.0,30.25,SW,223,4.0,9.0,52,0.00,,SKC,0.00,VWS V13.00,2013-01-24 00:48:00,
2013-01-23 19:53:00,33.1,17.8,30.25,WSW,252,5.0,7.0,53,0.00,,SKC,0.00,VWS V13.00,2013-01-24 00:53:00,
2013-01-23 19:58:00,33.7,18.4,30.25,SSW,196,2.0,7.0,53,0.00,,SKC,0.00,VWS V13.00,2013-01-24 00:58:00,
2013-01-23 20:03:00,34.5,19.1,30.24,SW,219,3.0,4.0,53,0.00,,SKC,0.00,VWS V13.00,2013-01-24 01:03:00,
2013-01-23 20:08:00,35.2,19.8,30.25,SW,236,1.0,7.0,53,0.00,,SKC,0.00,VWS V13.00,2013-01-24 01:08:00,
2013-01-23 20:13:00,35.8,20.8,30.25,SW,230,0.0,9.0,54,0.00,,SKC,0.00,VWS V13.00,2013-01-24 01:13:00,
2013-01-23 20:18:00,36.4,21.4,30.24,WSW,238,9.0,11.0,54,0.00,,SKC,0.00,VWS V13.00,2013-01-24 01:18:00,
2013-01-23 20:23:00,37.0,21.9,30.23,SSW,211,5.0,12.0,54,0.00,,SKC,0.00,VWS V13.00,2013-01-24 01:23:00,
2013-01-23 20:28:00,37.5,22.4,30.24,SW,228,7.0,10.0,54,0.00,,SKC,0.00,VWS V13.00,2013-01-24 01:28:00,
2013-01-23 20:33:00,37.9,22.8,30.24,SSW,211,7.0,9.0,54,0.00,,SKC,0.00,VWS V13.00,2013-01-24 01:33:00,
2013-01-23 20:38:00,38.2,23.0,30.23,SW,219,10.0,10.0,54,0.00,,SKC,0.00,VWS V13.00,2013-01-24 01:38:00,
2013-01-23 20:43:00,38.4,22.8,30.23,SW,236,6.0,10.0,53,0.00,,SKC,0.00,VWS V13.00,2013-01-24 01:43:00,
2013-01-23 20:48:00,38.7,23.5,30.23,SSW,192,5.0,14.0,54,0.00,,SKC,0.00,VWS V13.00,2013-01-24 01:48:00,
2013-01-23 20:53:00,39.0,23.8,30.23,SW,225,6.0,13.0,54,0.00,,SKC,0.00,VWS V13.00,2013-01-24 01:53:00,
2013-01-23 20:58:00,39.2,24.0,30.22,SSW,202,8.0,12.0,54,0.00,,SKC,0.00,VWS V13.00,2013-01-24 01:58:00,
2013-01-23 21:03:00,39.5,24.2,30.23,SSW,201,9.0,15.0,54,0.00,,SKC,0.00,VWS V13.00,2013-01-24 02:03:00,
2013-01-23 21:08:00,39.7,24.4,30.23,SSW,202,7.0,11.0,54,0.00,,SKC,0.00,VWS V13.00,2013-01-24 02:08:00,
2013-01-23 21:13:00,39.7,24.4,30.22,SW,219,6.0,8.0,54,0.00,,SKC,0.00,VWS V13.00,2013-01-24 02:13:00,
2013-01-23 21:18:00,39.8,24.5,30.23,SW,225,3.0,8.0,54,0.00,,SKC,0.00,VWS V13.00,2013-01-24 02:18:00,
2013-01-23 21:23:00,39.9,24.6,30.22,SW,217,7.0,12.0,54,0.00,,SKC,0.00,VWS V13.00,2013-01-24 02:23:00,
2013-01-23 21:28:00,40.0,24.7,30.22,SW,216,7.0,9.0,54,0.00,,SKC,0.00,VWS V13.00,2013-01-24 02:28:00,
2013-01-23 21:33:00,40.1,24.8,30.22,SW,219,2.0,13.0,54,0.00,,SKC,0.00,VWS V13.00,2013-01-24 02:33:00,
2013-01-23 21:38:00,40.1,24.8,30.22,WSW,254,3.0,9.0,54,0.00,,SKC,0.00,VWS V13.00,2013-01-24 02:38:00,
2013-01-23 21:43:00,40.2,24.9,30.22,SW,218,4.0,10.0,54,0.00,,SKC,0.00,VWS V13.00,2013-01-24 02:43:00,
2013-01-23 21:48:00,40.3,25.0,30.22,WSW,247,6.0,8.0,54,0.00,,SKC,0.00,VWS V13.00,2013-01-24 02:48:00,
2013-01-23 21:53:00,40.4,25.5,30.22,SW,224,5.0,11.0,55,0.00,,SKC,0.00,VWS V13.00,2013-01-24 02:53:00,
2013-01-23 21:58:00,40.5,25.6,30.22,SSW,196,5.0,10.0,55,0.00,,SKC,0.00,VWS V13.00,2013-01-24 02:58:00,
2013-01-23 22:03:00,40.7,25.8,30.21,SW,219,2.0,8.0,55,0.00,,SKC,0.00,VWS V13.00,2013-01-24 03:03:00,
2013-01-23 22:08:00,40.8,25.9,30.21,SW,227,8.0,10.0,55,0.00,,SKC,0.00,VWS V13.00,2013-01-24 03:08:00,
2013-01-23 22:13:00,40.9,26.0,30.20,SSW,209,9.0,9.0,55,0.00,,SKC,0.00,VWS V13.00,2013-01-24 03:13:00,
2013-01-23 22:18:00,40.9,26.0,30.20,SSW,205,4.0,11.0,55,0.00,,SKC,0.00,VWS V13.00,2013-01-24 03:18:00,
2013-01-23 22:23:00,41.1,26.6,30.20,SSW,209,4.0,11.0,56,0.00,,SKC,0.00,VWS V13.00,2013-01-24 03:23:00,
2013-01-23 22:28:00,41.3,26.8,30.20,SSW,204,3.0,15.0,56,0.00,,SKC,0.00,VWS V13.00,2013-01-24 03:28:00,
2013-01-23 22:33:00,41.5,27.0,30.19,SW,227,8.0,13.0,56,0.00,,SKC,0.00,VWS V13.00,2013-01-24 03:33:00,
2013-01-23 22:38:00,41.6,27.1,30.19,WSW,241,6.0,13.0,56,0.00,,SKC,0.00,VWS V13.00,2013-01-24 03:38:00,
2013-01-23 22:43:00,41.7,27.2,30.19,SW,224,4.0,12.0,56,0.00,,SKC,0.00,VWS V13.00,2013-01-24 03:43:00,
2013-01-23 22:48:00,41.9,27.4,30.19,SSW,213,8.0,13.0,56,0.00,,SKC,0.00,VWS V13.00,2013-01-24 03:48:00,
2013-01-23 22:53:00,42.0,27.5,30.18,SSW,200,6.0,10.0,56,0.00,,SKC,0.00,VWS V13.00,2013-01-24 03:53:00,
2013-01-23 22:58:00,42.2,28.1,30.18,South,188,4.0,13.0,57,0.00,,SKC,0.00,VWS V13.00,2013-01-24 03:58:00,
2013-01-23 23:03:00,42.3,28.2,30.18,WSW,249,1.0,14.0,57,0.00,,SKC,0.00,VWS V13.00,2013-01-24 04:03:00,
2013-01-23 23:08:00,42.5,28.4,30.18,SW,221,7.0,13.0,57,0.00,,SKC,0.00,VWS V13.00,2013-01-24 04:08:00,
2013-01-23 23:13:00,42.7,28.5,30.17,SW,215,13.0,13.0,57,0.00,,SKC,0.00,VWS V13.00,2013-01-24 04:13:00,
2013-01-23 23:18:00,42.8,28.6,30.17,WSW,240,10.0,12.0,57,0.00,,SKC,0.00,VWS V13.00,2013-01-24 04:18:00,
2013-01-23 23:23:00,43.0,28.8,30.16,SSE,166,6.0,12.0,57,0.00,,SKC,0.00,VWS V13.00,2013-01-24 04:23:00,
2013-01-23 23:28:00,43.1,28.9,30.16,SW,232,4.0,13.0,57,0.00,,SKC,0.00,VWS V13.00,2013-01-24 04:28:00,
2013-01-23 23:33:00,43.3,29.1,30.16,SSW,207,13.0,16.0,57,0.00,,SKC,0.00,VWS V13.00,2013-01-24 04:33:00,
2013-01-23 23:38:00,43.4,29.6,30.16,SW,218,9.0,11.0,58,0.00,,SKC,0.00,VWS V13.00,2013-01-24 04:38:00,
2013-01-23 23:43:00,43.5,29.7,30.15,SW,226,11.0,15.0,58,0.00,,SKC,0.00,VWS V13.00,2013-01-24 04:43:00,
2013-01-23 23:48:00,43.6,29.8,30.15,West,259,4.0,13.0,58,0.00,,SKC,0.00,VWS V13.00,2013-01-24 04:48:00,
2013-01-23 23:53:00,43.8,30.0,30.14,SSW,200,6.0,17.0,58,0.00,,SKC,0.00,VWS V13.00,2013-01-24 04:53:00,
2013-01-23 23:58:00,44.0,30.2,30.14,SSW,209,13.0,16.0,58,0.00,,SKC,0.00,VWS V13.00,2013-01-24 04:58:00,